WXM80 ListenWXM80 Stop

You find our weather info also at:

UK Metoffice

WeatherCloud

Weather Underground

Northeastern Weather Network

AWEKAS

Citizen Weather Observer Program (CWOP)

HAMweather, WeatherForYou, PWS Weather


Weather Underground History page Text

Daily Summary for August 26, 2016 Units:  English    Metric   Both
« Previous Day
Next Day »
Daily Weekly Monthly Yearly Custom
  High: Low: Average:
Temperature: 96.1 °F 73.7 °F 82.2 °F
Dew Point: 79.0 °F 68.6 °F 72.4 °F
Humidity: 90 % 50 % 74 %
Wind Speed: 6.9 mph 0.0 mph 1.7 mph
Wind Gust: 12.0 mph - -
Wind:- - WSW
Pressure: 30.03 in 29.92 in -
Precipitation: 0.00 in    
Historical Graphs
 
 
Tabular Data for August 26, 2016
Time Temperature Dew Point Pressure Wind Wind Speed Wind Gust Humidity Rainfall Rate (Hourly)
00:03 75.6 °F 70.4 °F 29.96 in SW 1.8 mph 3.5 mph 84 % 0.00 in
00:08 75.5 °F 70.3 °F 29.96 in Calm   1.2 mph 84 % 0.00 in
00:13 75.5 °F 70.3 °F 29.96 in South 0.3 mph 1.2 mph 84 % 0.00 in
00:23 75.4 °F 70.2 °F 29.96 in West 0.2 mph 1.2 mph 84 % 0.00 in
00:29 75.4 °F 70.2 °F 29.96 in WSW 0.4 mph 1.2 mph 84 % 0.00 in
00:34 75.3 °F 70.1 °F 29.96 in WSW 0.1 mph 1.2 mph 84 % 0.00 in
00:39 75.2 °F 70.0 °F 29.96 in SW 0.6 mph 3.5 mph 84 % 0.00 in
00:44 75.2 °F 70.0 °F 29.95 in SSW 0.2 mph 2.3 mph 84 % 0.00 in
00:49 75.1 °F 70.3 °F 29.95 in WSW 1.5 mph 3.5 mph 85 % 0.00 in
00:54 75.1 °F 70.3 °F 29.95 in SW 0.7 mph 2.3 mph 85 % 0.00 in
00:59 75.0 °F 70.2 °F 29.95 in SE 1.6 mph 4.6 mph 85 % 0.00 in
01:04 75.0 °F 70.2 °F 29.95 in WSW 0.7 mph 4.6 mph 85 % 0.00 in
01:09 75.0 °F 70.2 °F 29.95 in WSW 0.1 mph 1.2 mph 85 % 0.00 in
01:20 75.0 °F 70.5 °F 29.94 in South 0.2 mph 1.2 mph 86 % 0.00 in
01:25 75.0 °F 70.5 °F 29.95 in South 0.2 mph 2.3 mph 86 % 0.00 in
01:30 74.9 °F 70.4 °F 29.94 in South 0.3 mph 2.3 mph 86 % 0.00 in
01:35 74.9 °F 70.4 °F 29.94 in South 0.3 mph 1.2 mph 86 % 0.00 in
01:40 74.8 °F 70.3 °F 29.94 in South 0.8 mph 2.3 mph 86 % 0.00 in
01:45 74.7 °F 70.2 °F 29.94 in SSW 0.2 mph 1.2 mph 86 % 0.00 in
01:50 74.7 °F 70.2 °F 29.94 in SSW 1.1 mph 2.3 mph 86 % 0.00 in
01:55 74.6 °F 70.1 °F 29.94 in SW 0.7 mph 3.5 mph 86 % 0.00 in
02:00 74.6 °F 70.1 °F 29.94 in SSW 0.3 mph 1.2 mph 86 % 0.00 in
02:05 74.6 °F 70.1 °F 29.94 in WSW 1.7 mph 3.5 mph 86 % 0.00 in
02:11 74.5 °F 70.4 °F 29.94 in SW 2.0 mph 5.0 mph 87 % 0.00 in
02:16 74.5 °F 70.4 °F 29.94 in SW 1.1 mph 2.0 mph 87 % 0.00 in
02:21 74.4 °F 70.3 °F 29.94 in SW 1.0 mph 6.0 mph 87 % 0.00 in
02:31 74.4 °F 70.3 °F 29.94 in SSW 1.0 mph 5.0 mph 87 % 0.00 in
02:36 74.4 °F 70.3 °F 29.94 in Calm   2.0 mph 87 % 0.00 in
02:41 74.3 °F 70.2 °F 29.94 in SSW 1.0 mph 3.0 mph 87 % 0.00 in
02:46 74.3 °F 70.2 °F 29.94 in WSW 0.4 mph 3.5 mph 87 % 0.00 in
02:51 74.3 °F 70.2 °F 29.94 in SW 2.0 mph 3.0 mph 87 % 0.00 in
02:56 74.2 °F 70.4 °F 29.95 in Calm   2.0 mph 88 % 0.00 in
03:01 74.2 °F 70.4 °F 29.94 in SW 0.4 mph 1.2 mph 88 % 0.00 in
03:06 74.2 °F 70.4 °F 29.95 in Calm   2.0 mph 88 % 0.00 in
03:11 74.2 °F 70.4 °F 29.95 in SW 1.0 mph 3.0 mph 88 % 0.00 in
03:16 74.1 °F 70.3 °F 29.94 in SW 0.3 mph 1.2 mph 88 % 0.00 in
03:21 74.1 °F 70.3 °F 29.94 in SW 1.0 mph 4.0 mph 88 % 0.00 in
03:26 74.0 °F 70.2 °F 29.94 in SSW 1.0 mph 4.0 mph 88 % 0.00 in
03:31 74.0 °F 70.2 °F 29.95 in SW 2.0 mph 4.0 mph 88 % 0.00 in
03:36 74.0 °F 70.2 °F 29.94 in SW 1.0 mph 6.0 mph 88 % 0.00 in
03:41 74.0 °F 70.2 °F 29.94 in SSW 2.0 mph 6.0 mph 88 % 0.00 in
03:46 74.0 °F 70.2 °F 29.94 in Calm   6.0 mph 88 % 0.00 in
03:51 74.0 °F 70.2 °F 29.95 in SW 1.0 mph 5.0 mph 88 % 0.00 in
03:56 74.0 °F 70.2 °F 29.95 in SW 1.0 mph 3.0 mph 88 % 0.00 in
04:06 74.0 °F 70.2 °F 29.94 in SW 1.0 mph 3.0 mph 88 % 0.00 in
04:11 74.0 °F 70.2 °F 29.94 in SW 2.0 mph 6.0 mph 88 % 0.00 in
04:16 74.0 °F 70.2 °F 29.94 in SSW 1.0 mph 4.0 mph 88 % 0.00 in
04:21 74.0 °F 70.2 °F 29.94 in SSW 1.0 mph 3.0 mph 88 % 0.00 in
04:26 74.0 °F 70.2 °F 29.94 in SSW 1.0 mph 3.0 mph 88 % 0.00 in
04:31 73.9 °F 70.2 °F 29.94 in SW 1.0 mph 3.0 mph 88 % 0.00 in
04:36 73.9 °F 70.1 °F 29.94 in SSW 3.0 mph 5.0 mph 88 % 0.00 in
04:41 73.9 °F 70.1 °F 29.93 in SSW 1.0 mph 4.0 mph 88 % 0.00 in
04:46 73.9 °F 70.1 °F 29.94 in SSW 2.0 mph 3.0 mph 88 % 0.00 in
04:51 73.8 °F 70.0 °F 29.94 in SSW 1.0 mph 3.0 mph 88 % 0.00 in
04:56 73.8 °F 70.4 °F 29.94 in SSW 1.0 mph 4.0 mph 89 % 0.00 in
05:01 73.8 °F 70.4 °F 29.94 in WSW 2.7 mph 3.5 mph 89 % 0.00 in
05:06 73.8 °F 70.3 °F 29.94 in SW 1.0 mph 5.0 mph 89 % 0.00 in
05:11 73.7 °F 70.3 °F 29.94 in SW 1.0 mph 3.0 mph 89 % 0.00 in
05:16 73.7 °F 70.3 °F 29.94 in SW 2.0 mph 4.0 mph 89 % 0.00 in
05:21 73.7 °F 70.3 °F 29.94 in SW 1.0 mph 4.0 mph 89 % 0.00 in
05:26 73.7 °F 70.3 °F 29.94 in SW 2.0 mph 6.0 mph 89 % 0.00 in
05:31 73.8 °F 70.3 °F 29.94 in SSW 1.0 mph 6.0 mph 89 % 0.00 in
05:36 73.8 °F 70.4 °F 29.93 in SSW 1.0 mph 5.0 mph 89 % 0.00 in
05:41 73.8 °F 70.4 °F 29.93 in SSW 1.0 mph 4.0 mph 89 % 0.00 in
05:46 73.8 °F 70.4 °F 29.94 in SSW 1.0 mph 3.0 mph 89 % 0.00 in
05:51 73.8 °F 70.4 °F 29.94 in SSW 2.0 mph 4.0 mph 89 % 0.00 in
05:56 73.8 °F 70.4 °F 29.94 in SSW 1.0 mph 4.0 mph 89 % 0.00 in
06:01 73.8 °F 70.4 °F 29.94 in West 1.3 mph 3.5 mph 89 % 0.00 in
06:06 73.8 °F 70.4 °F 29.94 in SSW 1.0 mph 6.0 mph 89 % 0.00 in
06:11 73.8 °F 70.4 °F 29.94 in SW 2.0 mph 5.0 mph 89 % 0.00 in
06:16 73.8 °F 70.4 °F 29.95 in SW 3.0 mph 5.0 mph 89 % 0.00 in
06:21 73.7 °F 70.3 °F 29.94 in SW 2.0 mph 7.0 mph 89 % 0.00 in
06:26 73.8 °F 70.3 °F 29.94 in SSW 2.0 mph 4.0 mph 89 % 0.00 in
06:31 73.8 °F 70.4 °F 29.94 in SSW 2.0 mph 4.0 mph 89 % 0.00 in
06:36 73.8 °F 70.4 °F 29.94 in SSW 4.1 mph 5.8 mph 89 % 0.00 in
06:41 73.8 °F 70.4 °F 29.94 in SSW 2.0 mph 6.0 mph 89 % 0.00 in
06:46 73.8 °F 70.4 °F 29.94 in SSW 1.0 mph 4.0 mph 89 % 0.00 in
06:51 73.9 °F 70.4 °F 29.94 in SW 2.0 mph 4.0 mph 89 % 0.00 in
06:56 73.9 °F 70.5 °F 29.94 in SW 2.0 mph 4.0 mph 89 % 0.00 in
07:01 74.0 °F 70.6 °F 29.94 in SSW 0.5 mph 3.5 mph 89 % 0.00 in
07:06 74.0 °F 70.9 °F 29.94 in SW 1.1 mph 3.5 mph 90 % 0.00 in
07:11 74.1 °F 71.0 °F 29.94 in SW 2.1 mph 4.0 mph 90 % 0.00 in
07:16 74.3 °F 70.8 °F 29.94 in SW 1.3 mph 3.5 mph 89 % 0.00 in
07:21 74.5 °F 71.0 °F 29.94 in SSW 3.5 mph 6.9 mph 89 % 0.00 in
07:26 74.7 °F 71.2 °F 29.94 in SSE 0.4 mph 3.5 mph 89 % 0.00 in
07:31 74.9 °F 71.4 °F 29.94 in SW 3.1 mph 3.5 mph 89 % 0.00 in
07:36 75.1 °F 71.3 °F 29.94 in SW 0.4 mph 3.5 mph 88 % 0.00 in
07:41 75.3 °F 71.5 °F 29.94 in SW 0.9 mph 3.5 mph 88 % 0.00 in
07:52 75.6 °F 71.8 °F 29.95 in West 3.0 mph 5.0 mph 88 % 0.00 in
08:07 76.2 °F 72.0 °F 29.95 in SW 3.6 mph 4.6 mph 87 % 0.00 in
08:12 76.4 °F 72.2 °F 29.95 in SW 1.2 mph 3.5 mph 87 % 0.00 in
08:17 76.6 °F 72.4 °F 29.95 in SSW 1.8 mph 3.5 mph 87 % 0.00 in
08:22 76.8 °F 72.6 °F 29.95 in SSW 2.2 mph 4.0 mph 87 % 0.00 in
08:27 76.9 °F 72.4 °F 29.95 in SSW 1.7 mph 3.5 mph 86 % 0.00 in
08:32 77.0 °F 72.5 °F 29.95 in SW 1.6 mph 3.5 mph 86 % 0.00 in
08:37 77.1 °F 72.6 °F 29.94 in SW 2.0 mph 3.5 mph 86 % 0.00 in
08:43 77.1 °F 72.6 °F 29.95 in WSW 3.6 mph 4.0 mph 86 % 0.00 in
08:48 77.2 °F 72.7 °F 29.95 in NW 0.2 mph 2.3 mph 86 % 0.00 in
08:53 77.3 °F 72.8 °F 29.95 in SW 0.7 mph 6.9 mph 86 % 0.00 in
08:58 77.5 °F 73.0 °F 29.95 in SW 2.2 mph 3.5 mph 86 % 0.00 in
09:03 77.6 °F 73.1 °F 29.95 in SW 1.7 mph 3.5 mph 86 % 0.00 in
09:08 77.7 °F 72.8 °F 29.95 in WSW 1.5 mph 3.5 mph 85 % 0.00 in
09:13 77.8 °F 72.9 °F 29.95 in SW 0.8 mph 3.5 mph 85 % 0.00 in
09:18 77.9 °F 73.4 °F 29.95 in SW 4.2 mph 9.0 mph 86 % 0.00 in
09:28 78.3 °F 73.8 °F 29.94 in SW 2.4 mph 8.0 mph 86 % 0.00 in
09:34 78.7 °F 74.2 °F 29.94 in WSW 3.2 mph 5.8 mph 86 % 0.00 in
09:39 79.2 °F 74.3 °F 29.94 in WSW 4.0 mph 6.0 mph 85 % 0.00 in
09:44 79.8 °F 74.9 °F 29.94 in West 3.4 mph 6.9 mph 85 % 0.00 in
09:49 80.5 °F 75.2 °F 29.94 in WSW 2.1 mph 3.5 mph 84 % 0.00 in
09:54 81.4 °F 75.7 °F 29.94 in SW 4.2 mph 8.1 mph 83 % 0.00 in
09:59 82.1 °F 75.7 °F 29.94 in SW 2.4 mph 4.0 mph 81 % 0.00 in
10:04 82.8 °F 76.0 °F 29.94 in WNW 1.3 mph 6.9 mph 80 % 0.00 in
10:09 83.2 °F 76.0 °F 29.94 in WSW 6.9 mph 10.4 mph 79 % 0.00 in
10:14 83.4 °F 75.4 °F 29.94 in WSW 2.5 mph 5.8 mph 77 % 0.00 in
10:19 83.4 °F 75.4 °F 29.94 in West 1.9 mph 8.1 mph 77 % 0.00 in
10:25 83.3 °F 75.7 °F 29.94 in WNW 2.3 mph 5.8 mph 78 % 0.00 in
10:30 83.2 °F 75.6 °F 29.94 in WSW 3.6 mph 4.6 mph 78 % 0.00 in
10:35 83.2 °F 75.6 °F 29.94 in WNW 3.7 mph 5.8 mph 78 % 0.00 in
10:40 83.5 °F 75.9 °F 29.94 in NW 4.2 mph 6.9 mph 78 % 0.00 in
10:45 83.8 °F 75.8 °F 29.94 in WSW 3.1 mph 6.9 mph 77 % 0.00 in
10:50 84.3 °F 75.9 °F 29.94 in West 3.2 mph 6.9 mph 76 % 0.00 in
10:55 84.8 °F 76.4 °F 29.94 in SSW 3.9 mph 5.0 mph 76 % 0.00 in
11:00 85.5 °F 76.7 °F 29.94 in West 5.0 mph 6.9 mph 75 % 0.00 in
11:05 86.4 °F 76.3 °F 29.94 in WNW 3.3 mph 6.0 mph 72 % 0.00 in
11:10 86.8 °F 76.7 °F 29.94 in SW 3.8 mph 4.0 mph 72 % 0.00 in
11:16 87.2 °F 77.1 °F 29.94 in SW 3.0 mph 7.0 mph 72 % 0.00 in
11:21 87.5 °F 77.4 °F 29.94 in West 1.0 mph 7.0 mph 72 % 0.00 in
11:25 87.8 °F 76.8 °F 29.94 in WNW 4.7 mph 7.0 mph 70 % 0.00 in
11:31 88.2 °F 76.3 °F 29.94 in West 3.0 mph 8.0 mph 68 % 0.00 in
11:36 88.6 °F 76.7 °F 29.94 in WSW 5.0 mph 12.0 mph 68 % 0.00 in
11:41 89.2 °F 76.4 °F 29.94 in SSW 4.4 mph 9.2 mph 66 % 0.00 in
11:46 89.6 °F 77.2 °F 29.94 in West 2.0 mph 8.0 mph 67 % 0.00 in
11:51 90.1 °F 77.2 °F 29.94 in West 2.0 mph 7.0 mph 66 % 0.00 in
11:56 90.4 °F 76.6 °F 29.94 in West 2.0 mph 7.0 mph 64 % 0.00 in
12:01 91.0 °F 79.0 °F 29.94 in NW 1.6 mph 2.3 mph 68 % 0.00 in
12:06 91.4 °F 76.1 °F 29.94 in SW 4.6 mph 11.5 mph 61 % 0.00 in
12:11 91.6 °F 76.7 °F 29.94 in West 2.8 mph 8.1 mph 62 % 0.00 in
12:16 91.9 °F 78.0 °F 29.94 in West 2.0 mph 4.6 mph 64 % 0.00 in
12:21 92.3 °F 77.4 °F 29.94 in South 2.0 mph 3.5 mph 62 % 0.00 in
12:26 92.7 °F 76.8 °F 29.93 in WNW 4.2 mph 8.1 mph 60 % 0.00 in
12:31 92.9 °F 75.9 °F 29.93 in WNW 1.8 mph 6.9 mph 58 % 0.00 in
12:36 93.1 °F 76.6 °F 29.93 in WNW 2.1 mph 3.5 mph 59 % 0.00 in
12:41 93.4 °F 76.9 °F 29.93 in West 3.5 mph 6.9 mph 59 % 0.00 in
12:47 93.8 °F 78.3 °F 29.93 in NNE 1.7 mph 5.8 mph 61 % 0.00 in
12:52 94.1 °F 76.0 °F 29.93 in West 2.5 mph 11.5 mph 56 % 0.00 in
12:57 94.2 °F 76.1 °F 29.93 in NNW 5.6 mph 9.2 mph 56 % 0.00 in
13:02 94.2 °F 75.0 °F 29.93 in SSW 5.1 mph 6.9 mph 54 % 0.00 in
13:07 94.2 °F 75.6 °F 29.93 in NW 2.8 mph 5.8 mph 55 % 0.00 in
13:12 94.2 °F 75.0 °F 29.93 in NNW 4.0 mph 8.1 mph 54 % 0.00 in
13:17 94.4 °F 75.7 °F 29.93 in WNW 2.6 mph 8.1 mph 55 % 0.00 in
13:22 94.6 °F 77.0 °F 29.93 in SW 2.2 mph 6.9 mph 57 % 0.00 in
13:27 94.8 °F 75.6 °F 29.93 in WNW 4.4 mph 7.0 mph 54 % 0.00 in
13:32 95.0 °F 75.7 °F 29.93 in NNW 1.3 mph 8.1 mph 54 % 0.00 in
13:38 95.1 °F 77.5 °F 29.93 in SW 3.0 mph 6.9 mph 57 % 0.00 in
13:43 95.4 °F 77.2 °F 29.92 in WSW 1.3 mph 3.5 mph 56 % 0.00 in
13:48 95.6 °F 76.3 °F 29.92 in West 4.0 mph 8.1 mph 54 % 0.00 in
13:53 95.8 °F 76.5 °F 29.92 in SW 3.2 mph 7.0 mph 54 % 0.00 in
13:58 95.8 °F 75.9 °F 29.92 in WSW 2.9 mph 5.8 mph 53 % 0.00 in
14:08 95.9 °F 74.9 °F 29.92 in WSW 2.0 mph 3.5 mph 51 % 0.00 in
14:13 95.9 °F 75.4 °F 29.92 in West 1.8 mph 3.5 mph 52 % 0.00 in
14:18 96.0 °F 76.1 °F 29.92 in NW 3.9 mph 8.1 mph 53 % 0.00 in
14:23 96.1 °F 75.6 °F 29.92 in WNW 2.7 mph 8.1 mph 52 % 0.00 in
14:29 96.1 °F 74.5 °F 29.92 in SSW 3.1 mph 3.5 mph 50 % 0.00 in
14:34 96.1 °F 74.5 °F 29.92 in NE 3.9 mph 8.1 mph 50 % 0.00 in
14:39 95.8 °F 74.2 °F 29.92 in WNW 1.9 mph 4.6 mph 50 % 0.00 in
14:44 95.4 °F 74.4 °F 29.93 in WNW 2.1 mph 3.5 mph 51 % 0.00 in
14:49 95.2 °F 74.2 °F 29.92 in West 2.0 mph 3.5 mph 51 % 0.00 in
14:54 95.2 °F 74.2 °F 29.93 in West 3.2 mph 5.8 mph 51 % 0.00 in
14:59 95.4 °F 75.0 °F 29.93 in West 2.6 mph 5.8 mph 52 % 0.00 in
15:04 95.5 °F 73.9 °F 29.93 in WSW 4.1 mph 7.0 mph 50 % 0.00 in
15:09 95.4 °F 75.0 °F 29.93 in WNW 1.8 mph 5.0 mph 52 % 0.00 in
15:14 95.1 °F 74.7 °F 29.93 in WSW 3.4 mph 8.0 mph 52 % 0.00 in
15:20 94.6 °F 75.9 °F 29.93 in West 2.4 mph 4.0 mph 55 % 0.00 in
15:25 94.4 °F 74.6 °F 29.93 in West 2.1 mph 5.8 mph 53 % 0.00 in
15:30 94.4 °F 74.6 °F 29.93 in NNE 3.1 mph 6.9 mph 53 % 0.00 in
15:35 94.4 °F 74.6 °F 29.93 in WNW 4.6 mph 9.2 mph 53 % 0.00 in
15:40 94.1 °F 76.0 °F 29.93 in NNE 2.0 mph 5.0 mph 56 % 0.00 in
15:45 93.8 °F 75.7 °F 29.93 in NNE 5.6 mph 6.9 mph 56 % 0.00 in
15:50 93.5 °F 76.0 °F 29.93 in NNE 2.4 mph 3.5 mph 57 % 0.00 in
15:55 92.8 °F 75.3 °F 29.93 in NNE 2.4 mph 3.5 mph 57 % 0.00 in
16:00 92.1 °F 75.7 °F 29.94 in NNE 1.3 mph 2.3 mph 59 % 0.00 in
16:05 91.4 °F 75.1 °F 29.94 in NNE 0.2 mph 1.2 mph 59 % 0.00 in
16:11 91.0 °F 74.7 °F 29.94 in NNE 1.3 mph 2.3 mph 59 % 0.00 in
16:16 90.6 °F 75.3 °F 29.94 in Calm   2.0 mph 61 % 0.00 in
16:21 90.1 °F 74.9 °F 29.94 in Calm   1.0 mph 61 % 0.00 in
16:26 89.9 °F 74.6 °F 29.94 in Calm   3.0 mph 61 % 0.00 in
16:31 89.8 °F 75.1 °F 29.94 in North 2.0 mph 5.0 mph 62 % 0.00 in
16:36 89.9 °F 75.1 °F 29.94 in NNW 1.0 mph 4.0 mph 62 % 0.00 in
16:41 90.0 °F 75.2 °F 29.94 in NNW 2.0 mph 6.0 mph 62 % 0.00 in
16:46 90.0 °F 75.7 °F 29.94 in North 1.0 mph 4.0 mph 63 % 0.00 in
16:51 90.1 °F 75.3 °F 29.94 in NNW 1.0 mph 4.0 mph 62 % 0.00 in
16:56 90.1 °F 75.3 °F 29.93 in North 0.9 mph 2.3 mph 62 % 0.00 in
17:01 90.1 °F 75.3 °F 29.94 in North 3.1 mph 4.0 mph 62 % 0.00 in
17:06 90.0 °F 74.2 °F 29.94 in NW 1.3 mph 3.5 mph 60 % 0.00 in
17:11 90.1 °F 74.8 °F 29.94 in NNE 1.6 mph 5.0 mph 61 % 0.00 in
17:16 90.1 °F 74.3 °F 29.94 in North 2.8 mph 4.6 mph 60 % 0.00 in
17:21 90.3 °F 74.5 °F 29.94 in North 1.0 mph 4.0 mph 60 % 0.00 in
17:26 90.1 °F 74.3 °F 29.94 in NNW 0.8 mph 3.5 mph 60 % 0.00 in
17:31 90.0 °F 74.2 °F 29.94 in NW 2.5 mph 3.5 mph 60 % 0.00 in
17:36 89.8 °F 74.1 °F 29.94 in NW 1.7 mph 3.5 mph 60 % 0.00 in
17:41 89.5 °F 73.3 °F 29.94 in NNE 3.4 mph 5.8 mph 59 % 0.00 in
17:47 89.4 °F 73.7 °F 29.95 in WNW 2.2 mph 5.0 mph 60 % 0.00 in
17:52 89.2 °F 73.5 °F 29.95 in WNW 2.4 mph 5.0 mph 60 % 0.00 in
17:57 88.9 °F 72.7 °F 29.95 in North 1.7 mph 6.9 mph 59 % 0.00 in
18:02 88.8 °F 72.6 °F 29.95 in NNE 1.7 mph 5.8 mph 59 % 0.00 in
18:07 88.4 °F 72.2 °F 29.95 in NNE 2.2 mph 3.5 mph 59 % 0.00 in
18:12 88.0 °F 71.4 °F 29.95 in NNE 2.9 mph 7.0 mph 58 % 0.00 in
18:17 87.7 °F 71.6 °F 29.95 in NW 2.5 mph 5.8 mph 59 % 0.00 in
18:22 87.4 °F 71.3 °F 29.95 in WNW 0.1 mph 2.3 mph 59 % 0.00 in
18:27 87.1 °F 71.5 °F 29.95 in NNW 1.0 mph 3.5 mph 60 % 0.00 in
18:32 86.7 °F 71.2 °F 29.95 in North 1.3 mph 5.8 mph 60 % 0.00 in
18:38 86.4 °F 71.8 °F 29.95 in North 5.4 mph 5.8 mph 62 % 0.00 in
18:43 86.1 °F 72.5 °F 29.95 in North 2.0 mph 5.0 mph 64 % 0.00 in
18:48 85.9 °F 71.8 °F 29.96 in North 0.3 mph 4.6 mph 63 % 0.00 in
18:50 85.8 °F 71.7 °F 29.96 in North 0.5 mph 2.3 mph 63 % 0.00 in
18:55 85.6 °F 72.0 °F 29.96 in NNW 0.2 mph 3.5 mph 64 % 0.00 in
19:05 85.0 °F 71.5 °F 29.96 in North 0.1 mph 2.3 mph 64 % 0.00 in
19:10 84.8 °F 71.3 °F 29.96 in WNW 0.1 mph 1.2 mph 64 % 0.00 in
19:15 84.5 °F 71.0 °F 29.96 in WNW 0.9 mph 2.0 mph 64 % 0.00 in
19:20 84.3 °F 70.8 °F 29.96 in Calm     64 % 0.00 in
19:25 84.1 °F 70.6 °F 29.96 in NW 1.2 mph 2.3 mph 64 % 0.00 in
19:31 83.9 °F 70.0 °F 29.96 in North 1.1 mph 3.5 mph 63 % 0.00 in
19:36 83.7 °F 69.3 °F 29.96 in Calm   6.0 mph 62 % 0.00 in
19:41 83.5 °F 69.1 °F 29.97 in Calm   3.0 mph 62 % 0.00 in
19:46 83.4 °F 69.0 °F 29.96 in WNW 0.2 mph 2.0 mph 62 % 0.00 in
19:51 83.3 °F 68.9 °F 29.96 in WNW 1.0 mph 3.0 mph 62 % 0.00 in
19:56 83.2 °F 68.8 °F 29.97 in Calm   2.0 mph 62 % 0.00 in
20:01 83.0 °F 69.1 °F 29.96 in Calm   2.3 mph 63 % 0.00 in
20:06 82.9 °F 69.5 °F 29.96 in NNW 1.0 mph 3.0 mph 64 % 0.00 in
20:11 82.8 °F 69.4 °F 29.97 in NW 1.0 mph 2.0 mph 64 % 0.00 in
20:16 82.6 °F 69.7 °F 29.97 in NNW 1.0 mph 3.0 mph 65 % 0.00 in
20:21 82.5 °F 70.0 °F 29.97 in Calm   2.0 mph 66 % 0.00 in
20:26 82.4 °F 70.3 °F 29.97 in Calm     67 % 0.00 in
20:31 82.3 °F 71.1 °F 29.98 in NNE 0.1 mph 1.2 mph 69 % 0.00 in
20:36 82.1 °F 71.3 °F 29.98 in Calm   1.0 mph 70 % 0.00 in
20:41 81.8 °F 71.5 °F 29.98 in Calm   3.0 mph 71 % 0.00 in
20:46 81.6 °F 71.3 °F 29.98 in Calm     71 % 0.00 in
20:51 81.3 °F 70.6 °F 29.98 in Calm   1.0 mph 70 % 0.00 in
20:56 81.2 °F 70.4 °F 29.98 in Calm   1.0 mph 70 % 0.00 in
21:01 80.9 °F 70.6 °F 29.98 in Calm     71 % 0.00 in
21:06 80.7 °F 70.4 °F 29.99 in Calm   1.0 mph 71 % 0.00 in
21:11 80.5 °F 70.2 °F 29.99 in NNW 0.4 mph 1.2 mph 71 % 0.00 in
21:16 80.3 °F 70.0 °F 29.99 in NNW 0.3 mph 2.3 mph 71 % 0.00 in
21:21 80.1 °F 70.7 °F 29.99 in NW 0.8 mph 2.3 mph 73 % 0.00 in
21:26 80.0 °F 70.6 °F 29.99 in WNW 0.5 mph 2.3 mph 73 % 0.00 in
21:31 79.8 °F 70.4 °F 29.99 in WNW 0.5 mph 1.2 mph 73 % 0.00 in
21:36 79.7 °F 70.3 °F 29.99 in WNW 0.2 mph 1.0 mph 73 % 0.00 in
21:41 79.6 °F 70.6 °F 30.00 in WNW 0.1 mph 1.2 mph 74 % 0.00 in
21:46 79.5 °F 70.5 °F 30.00 in WNW 0.9 mph 2.3 mph 74 % 0.00 in
21:51 79.3 °F 70.3 °F 30.00 in WNW 0.2 mph 2.0 mph 74 % 0.00 in
21:56 79.2 °F 70.2 °F 30.00 in WNW 0.1 mph 1.2 mph 74 % 0.00 in
22:02 79.1 °F 70.1 °F 30.00 in WNW 1.2 mph 1.2 mph 74 % 0.00 in
22:07 78.9 °F 69.9 °F 30.00 in West 1.0 mph 2.3 mph 74 % 0.00 in
22:12 78.7 °F 68.9 °F 30.01 in WNW 1.0 mph 3.5 mph 72 % 0.00 in
22:17 78.6 °F 68.8 °F 30.01 in WNW 1.1 mph 3.5 mph 72 % 0.00 in
22:22 78.5 °F 69.1 °F 30.01 in WNW 0.1 mph 1.2 mph 73 % 0.00 in
22:27 78.4 °F 69.0 °F 30.01 in WNW 1.0 mph 3.5 mph 73 % 0.00 in
22:32 78.4 °F 69.4 °F 30.01 in West 2.2 mph 3.5 mph 74 % 0.00 in
22:37 78.3 °F 69.3 °F 30.01 in WNW 1.4 mph 3.0 mph 74 % 0.00 in
22:42 78.2 °F 69.2 °F 30.01 in WNW 1.7 mph 3.0 mph 74 % 0.00 in
22:47 78.2 °F 69.2 °F 30.01 in WNW 1.4 mph 3.5 mph 74 % 0.00 in
22:53 78.2 °F 69.6 °F 30.02 in WNW 1.1 mph 3.5 mph 75 % 0.00 in
22:58 78.1 °F 69.5 °F 30.02 in West 1.8 mph 3.5 mph 75 % 0.00 in
23:08 78.0 °F 69.4 °F 30.02 in Calm     75 % 0.00 in
23:13 78.0 °F 69.4 °F 30.02 in Calm     75 % 0.00 in
23:18 77.9 °F 69.3 °F 30.02 in West 0.7 mph 2.0 mph 75 % 0.00 in
23:23 77.8 °F 69.2 °F 30.02 in NW 0.6 mph 2.0 mph 75 % 0.00 in
23:28 77.7 °F 69.1 °F 30.02 in NW 1.3 mph 2.3 mph 75 % 0.00 in
23:33 77.5 °F 68.9 °F 30.03 in NW 1.3 mph 3.5 mph 75 % 0.00 in
23:39 77.4 °F 68.9 °F 30.03 in WNW 0.2 mph 1.0 mph 75 % 0.00 in
23:44 77.3 °F 68.8 °F 30.03 in West 1.3 mph 3.0 mph 75 % 0.00 in
23:54 77.1 °F 68.6 °F 30.03 in WNW 0.5 mph 4.6 mph 75 % 0.00 in
23:59 77.0 °F 68.9 °F 30.03 in WNW 1.6 mph 4.6 mph 76 % 0.00 in
Crab Meadow Weather
Compliments of Weather Underground - 3 mb

Script developed by  Jim McMurry - jmcmurry@mwt.net Adapted for the template by  Wim van der Kuil - Leuven-Template.eu

Weather Terms: Sleet - Sleet or ice pellets are solid grains of ice formed from the freezing of rain or the refreezing of melted snow, which bounce off the ground and other objects.